Simultaneous Nadir Overpasses (SNOs) Predictions

Prediction of SNOs between AQUA and METOP-B Satellite Orbit:

Table of predicted SNOs for the next 14.0 days since TLE Epoch: 12/14/2018
Index Date (AQUA) Time (AQUA) Lat,Lon (AQUA) SZA (AQUA ) Date (METOP-B) Time (METOP-B) Lat,Lon (METOP-B) SZA (METOP-B ) Distance(km) Time Diff (sec)
1 12/16/2018 10:21:43 -73.75,-161.06 82.98 12/16/2018 10:20:31 -73.70,-161.58 83.02 17.27 72
2 12/16/2018 11:11:13 73.87, 6.31 97.15 12/16/2018 11:11:07 73.89, 6.23 97.18 3.27 6
3 12/16/2018 12:00:40 -73.95, 173.77 82.77 12/16/2018 12:01:47 -73.97, 173.75 82.75 2.40 67
4 12/19/2018 05:56:00 -73.84, -94.83 82.79 12/19/2018 05:54:52 -73.85, -94.81 82.78 0.59 68
5 12/19/2018 06:45:29 73.91, 72.65 97.29 12/19/2018 06:45:31 73.89, 72.63 97.27 2.69 2
6 12/19/2018 07:34:57 -74.05,-120.00 82.57 12/19/2018 07:36:09 -74.07,-119.59 82.56 12.99 72
7 12/22/2018 01:30:16 -73.84, -28.39 82.75 12/22/2018 01:29:17 -73.85, -28.40 82.74 0.93 59
8 12/22/2018 02:19:45 73.91, 139.10 97.32 12/22/2018 02:19:55 73.94, 139.14 97.35 3.32 10
9 12/22/2018 03:09:19 -74.35, -54.28 82.21 12/22/2018 03:10:28 -74.37, -52.44 82.24 55.17 69
10 12/24/2018 21:04:32 -73.84, 38.05 82.78 12/24/2018 21:03:42 -73.85, 38.00 82.76 1.46 50
11 12/24/2018 21:54:01 73.91,-154.47 97.30 12/24/2018 21:54:20 73.93,-154.46 97.32 2.24 19
12 12/27/2018 16:38:48 -73.85, 104.46 82.86 12/27/2018 16:38:07 -73.84, 104.40 82.85 1.98 41
13 12/27/2018 17:28:17 73.92, -88.05 97.22 12/27/2018 17:28:45 73.92, -88.07 97.22 0.90 28




NCC Satellite Simultaneous Nadir Overpasses (SNOs) Prediction Service
